Date String (YYYY-MM-DD hh:mm:ss) UTC,Instrument flags,absolute air pressure of the measurement (hPa),sample flow rate (lpm),inlet stack bypass flow (lpm),air temperature of the measurement (°C),ambient temperature measured by the external sensor (°C),aerosol sample conditioner tube jacket temperature (°C),OPC LED temperature (°C),internal box temperature (°C),relative humidity of the measurement (%),span deviation,mass concentration of particles derived from Lorenz-Mie calculation of OPC scattering (μg/m³),mass concentration of particles derived from Lorenz-Mie calculation of OPC scattering (μg/m³),mass concentration of particles derived from Lorenz-Mie calculation of OPC scattering (μg/m³)
DateTimeUTC,F1_M11,P_M11,Q1_M11,Q2_M11,T1_M11,T2_M11,T3_M11,T4_M11,T5_M11,U1_M11,ZSPAN_M11,X2_M11,X0_M11,X1_M11
2024-04-25 18:00:00,SystemResetWarning,0822.0,5.00,000.00,025.0,023.8,000.0,033.5,026.8,030.0,0001.2,0014.18,0031.32,0011.81
2024-04-25 18:01:00,SystemResetWarning,0822.0,5.01,000.00,025.1,024.0,000.0,033.5,026.9,030.2,0000.9,0014.16,0030.54,0011.83
2024-04-25 18:02:00,SystemResetWarning,0822.0,4.99,000.00,025.1,024.2,000.0,033.5,027.0,030.2,0000.8,0014.15,0029.75,0011.86
2024-04-25 18:03:00,SystemResetWarning,0822.0,5.01,000.00,025.2,024.4,000.0,033.6,027.1,030.0,0000.6,0014.19,0030.87,0011.90
2024-04-25 18:04:00,SystemResetWarning,0822.0,5.00,000.00,025.3,024.5,000.0,033.6,027.2,029.6,0000.6,0014.22,0031.45,0011.89
2024-04-25 18:05:00,SystemResetWarning,0822.0,4.99,000.00,025.3,024.6,000.0,033.6,027.3,029.3,0000.7,0014.24,0032.00,0011.89
2024-04-25 18:06:00,SystemResetWarning,0822.0,4.98,000.00,025.4,024.8,000.0,033.6,027.3,029.6,0000.6,0014.24,0031.89,0011.89
2024-04-25 18:07:00,SystemResetWarning,0822.0,5.01,000.00,025.5,024.9,000.0,033.7,027.4,029.9,0000.4,0014.13,0031.25,0011.88
2024-04-25 18:08:00,SystemResetWarning,0821.9,5.01,000.00,025.5,025.0,000.0,033.7,027.5,029.8,0000.4,0014.10,0031.11,0011.89
2024-04-25 18:09:00,SystemResetWarning,0821.6,4.98,000.00,025.6,025.0,000.0,033.7,027.5,029.4,0000.1,0014.14,0031.57,0011.91
2024-04-25 18:10:00,SystemResetWarning,0821.3,5.00,000.00,025.6,025.1,000.0,033.8,027.6,029.5,0000.1,0014.15,0031.82,0011.91
2024-04-25 18:11:00,SystemResetWarning,0821.3,5.01,000.00,025.7,025.2,000.0,033.8,027.7,029.0,-000.0,0014.19,0030.94,0011.88
2024-04-25 18:12:00,SystemResetWarning,0821.3,5.01,000.00,025.8,025.2,000.0,033.9,027.7,028.2,-000.0,0014.15,0030.84,0011.85
2024-04-25 18:13:00,SystemResetWarning,0821.3,5.00,000.00,025.8,025.0,000.0,033.9,027.6,028.7,-000.1,0014.03,0031.36,0011.75
2024-04-25 18:14:00,SystemResetWarning,0821.2,4.98,000.00,025.5,023.1,000.0,034.0,026.5,029.1,0000.2,0013.93,0032.08,0011.64
2024-04-25 18:15:00,SystemResetWarning,0821.1,5.01,000.00,025.1,021.6,000.0,034.0,025.5,029.7,0000.1,0013.79,0032.07,0011.59
2024-04-25 18:16:00,SystemResetWarning,0821.2,5.01,000.00,024.8,021.7,000.0,033.9,025.5,029.7,0000.0,0013.72,0031.85,0011.58
2024-04-25 18:17:00,SystemResetWarning,0821.2,5.00,000.00,024.7,022.1,000.0,033.7,025.7,029.8,0000.3,0013.73,0033.11,0011.60
2024-04-25 18:18:00,SystemResetWarning,0821.1,5.00,000.00,024.7,022.5,000.0,033.6,026.1,029.6,0000.4,0013.79,0032.53,0011.61
2024-04-25 18:19:00,SystemResetWarning,0821.0,5.01,000.00,024.8,022.9,000.0,033.5,026.4,029.9,0000.4,0013.85,0032.89,0011.62
2024-04-25 18:20:00,SystemResetWarning,0821.0,4.99,000.00,024.8,023.3,000.0,033.5,026.5,029.4,0001.0,0013.85,0032.82,0011.62
2024-04-25 18:21:00,SystemResetWarning,0821.0,5.00,000.00,024.9,023.6,000.0,033.5,026.7,029.3,0001.2,0013.86,0032.12,0011.61
2024-04-25 18:22:00,SystemResetWarning,0821.1,4.99,000.00,025.0,023.8,000.0,033.4,026.8,029.2,0001.2,0013.83,0032.26,0011.62
2024-04-25 18:23:00,SystemResetWarning,0821.1,5.00,000.00,025.0,024.0,000.0,033.4,026.9,029.0,0001.3,0013.84,0031.69,0011.59
2024-04-25 18:24:00,SystemResetWarning,0821.1,5.01,000.00,025.1,024.2,000.0,033.5,027.0,028.9,0001.4,0013.88,0031.30,0011.62
2024-04-25 18:25:00,SystemResetWarning,0821.1,5.00,000.00,025.2,024.4,000.0,033.5,027.1,028.3,0001.1,0013.89,0028.99,0011.65
2024-04-25 18:26:00,SystemResetWarning,0821.1,5.00,000.00,025.2,024.5,000.0,033.5,027.2,028.4,0001.1,0013.90,0029.47,0011.64
2024-04-25 18:27:00,SystemResetWarning,0821.0,4.99,000.00,025.3,024.7,000.0,033.5,027.2,028.8,0001.3,0013.84,0031.10,0011.56
2024-04-25 18:28:00,SystemResetWarning,0821.0,5.00,000.00,025.4,024.8,000.0,033.6,027.3,028.2,0001.2,0013.69,0029.80,0011.44
2024-04-25 18:29:00,SystemResetWarning,0820.9,5.01,000.00,025.4,024.9,000.0,033.6,027.4,027.9,0001.1,0013.59,0029.54,0011.34
2024-04-25 18:30:00,SystemResetWarning,0821.1,5.00,000.00,025.5,025.0,000.0,033.6,027.5,028.1,0000.9,0013.49,0029.05,0011.25
2024-04-25 18:31:00,SystemResetWarning,0820.9,5.00,000.00,025.5,025.1,000.0,033.7,027.5,028.3,0000.4,0013.36,0027.80,0011.19
2024-04-25 18:32:00,SystemResetWarning,0820.9,5.00,000.00,025.6,025.1,000.0,033.7,027.6,028.1,-000.1,0013.21,0027.26,0011.12
2024-04-25 18:33:00,SystemResetWarning,0820.8,5.00,000.00,025.6,024.6,000.0,033.8,027.3,027.4,0000.0,0013.12,0027.14,0011.06
2024-04-25 18:34:00,SystemResetWarning,0820.8,4.99,000.00,025.3,022.6,000.0,033.8,026.1,027.3,-000.0,0013.02,0027.78,0011.00
2024-04-25 18:35:00,SystemResetWarning,0820.8,5.01,000.00,024.9,021.6,000.0,033.8,025.4,027.9,-000.0,0012.91,0028.36,0010.95
2024-04-25 18:36:00,SystemResetWarning,0820.7,5.01,000.00,024.6,021.8,000.0,033.7,025.4,028.8,0000.2,0012.76,0028.80,0010.84
2024-04-25 18:37:00,SystemResetWarning,0820.7,5.00,000.00,024.6,022.2,000.0,033.5,025.7,029.0,0000.2,0012.65,0027.85,0010.73
2024-04-25 18:38:00,SystemResetWarning,0820.7,5.01,000.00,024.6,022.6,000.0,033.4,026.1,028.8,0000.2,0012.52,0025.39,0010.64
2024-04-25 18:39:00,SystemResetWarning,0820.7,5.00,000.00,024.7,023.0,000.0,033.4,026.3,028.7,0000.2,0012.52,0025.55,0010.60
2024-04-25 18:40:00,SystemResetWarning,0820.7,4.98,000.00,024.7,023.3,000.0,033.3,026.5,029.3,0000.4,0012.47,0026.30,0010.57
2024-04-25 18:41:00,SystemResetWarning,0820.7,5.02,000.00,024.8,023.6,000.0,033.3,026.6,029.7,0000.4,0012.42,0026.05,0010.53
2024-04-25 18:42:00,SystemResetWarning,0820.6,5.00,000.00,024.9,023.8,000.0,033.3,026.8,029.7,0000.5,0012.48,0026.38,0010.49
2024-04-25 18:43:00,SystemResetWarning,0820.7,5.00,000.00,025.0,024.1,000.0,033.3,026.9,029.8,0000.8,0012.48,0026.66,0010.45
2024-04-25 18:44:00,SystemResetWarning,0820.6,5.00,000.00,025.0,024.2,000.0,033.3,027.0,029.4,0000.8,0012.43,0027.48,0010.43
2024-04-25 18:45:00,SystemResetWarning,0820.6,5.00,000.00,025.1,024.4,000.0,033.4,027.0,029.2,0001.0,0012.42,0026.57,0010.41
2024-04-25 18:46:00,SystemResetWarning,0820.6,4.99,000.00,025.2,024.5,000.0,033.4,027.1,030.0,0001.1,0012.39,0025.61,0010.39
2024-04-25 18:47:00,SystemResetWarning,0820.6,4.99,000.00,025.3,024.7,000.0,033.4,027.2,029.9,0001.2,0012.45,0025.28,0010.44
2024-04-25 18:48:00,SystemResetWarning,0820.7,5.00,000.00,025.3,024.8,000.0,033.5,027.3,030.4,0001.2,0012.54,0025.50,0010.52
2024-04-25 18:49:00,SystemResetWarning,0820.7,5.00,000.00,025.4,024.9,000.0,033.5,027.3,030.4,0001.1,0012.64,0026.52,0010.62
2024-04-25 18:50:00,SystemResetWarning,0820.7,4.99,000.00,025.4,024.9,000.0,033.5,027.4,030.0,0000.9,0012.82,0026.76,0010.73
2024-04-25 18:51:00,SystemResetWarning,0820.7,5.00,000.00,025.5,025.0,000.0,033.6,027.5,029.9,0000.7,0012.90,0025.68,0010.81
2024-04-25 18:52:00,SystemResetWarning,0820.7,5.01,000.00,025.6,025.1,000.0,033.6,027.5,029.3,0000.7,0012.98,0025.42,0010.90
2024-04-25 18:53:00,SystemResetWarning,0820.6,4.97,000.00,025.5,024.0,000.0,033.7,026.9,030.0,0000.7,0013.00,0024.74,0010.99
2024-04-25 18:54:00,SystemResetWarning,0820.8,5.01,000.00,025.1,022.1,000.0,033.7,025.9,030.9,0000.8,0013.11,0025.84,0011.09
2024-04-25 18:55:00,SystemResetWarning,0820.7,5.02,000.00,024.8,021.6,000.0,033.7,025.4,030.6,0001.0,0013.24,0026.31,0011.18
2024-04-25 18:56:00,SystemResetWarning,0820.7,4.99,000.00,024.6,022.0,000.0,033.5,025.5,029.7,0001.0,0013.27,0026.11,0011.20
2024-04-25 18:57:00,SystemResetWarning,0820.7,5.00,000.00,024.6,022.4,000.0,033.4,025.9,030.0,0001.0,0013.24,0027.79,0011.19
2024-04-25 18:58:00,SystemResetWarning,0820.9,5.00,000.00,024.6,022.8,000.0,033.3,026.2,030.6,0000.9,0013.18,0028.77,0011.11
2024-04-25 18:59:00,SystemResetWarning,0820.7,5.00,000.00,024.7,023.1,000.0,033.3,026.4,030.4,0001.1,0013.08,0029.43,0011.00
